Terminal Aerodrome Forecast
Issued by NWS San Angelo, TX

Home | Current Version | Previous Version | Text Only | Print | Product List | Glossary On
Versions: 1 2 3 4 5 6 7 8 9 10 11 12 13 14 15 16 17 18 19 20 21 22 23 24
000
FTUS44 KSJT 200700 AAB
TAFSJT
TAF AMD
KSJT 200700Z 2007/2106 11006KT P6SM VCSH BKN012
     FM200900 15005KT P6SM OVC009
     FM201500 15006KT P6SM BKN015
     FM201800 16010KT P6SM SCT025 BKN050=

USA.gov is the U.S. government's official web portal to all federal, state and local government web resources and services.